{"data":{"norad_id":53577,"intl_designator":"2022-101BC","name":"STARLINK-4553","alt_names":[],"object_type":"PAYLOAD","status":"ACTIVE","operator":null,"country":"US","launch_date":"2022-08-19","launch_site_code":"AFETR","launch_vehicle":null,"mission":null,"orbit_class":"UNKNOWN","rcs_meters":null,"size_class":null,"mass_kg":null,"dimensions":null,"purposes":["comms"],"wikipedia_slug":null,"has_3d_model":false,"image_url":null,"decayed_at":null,"tle_current":{"epoch":"2026-09-20T22:42:56.566656Z","epoch_age_seconds":40493,"freshness":"FRESH","line1":"1 53577U 22101BC  26263.94648804  .00008427  00000+0  26018-3 0  9995","line2":"2 53577  53.1606 241.3860 0001251  94.5215 265.5930 15.34407791226965","mean_motion":15.34407791,"eccentricity":0.0001251,"inclination_deg":53.1606,"raan_deg":241.386,"arg_perigee_deg":94.5215,"mean_anomaly_deg":265.593,"bstar":0.00026018,"rev_number":22696,"period_min":93.847281566625,"perigee_km":461.82429759402,"apogee_km":463.53587002839,"semimajor_km":6840.8170838112,"source":"CELESTRAK","updated_at":"2026-09-21T09:00:32.933024Z"}}}